Location: Unnamed
(47.6578°N, 23.5640°E)
Time: 23:28:28
(UTC+03:00)

ISS - Pass Details

Date: 30 April 2020
Orbit: 418 x 421 km, 51.6° (Epoch: 08 May)

Event Time Altitude Azimuth Distance (km) Brightness Sun altitude
Exits shadow 03:56:58 13° 138° (SE) 1,326 -1.3 -18.7°
Maximum altitude 03:57:09 13° 134° (SE) 1,324 -1.3 -18.6°
Drops below altitude 10° 03:58:46 10° 105° (ESE) 1,495 -0.7 -18.5°
Sets 04:01:44 0° 77° (ENE) 2,365 0.9 -18.1°
